Temperature
31 32 32 33 33 33 32 32 32 32 31 31 30 30 30 28 28 28 27 26 25 25 24 23 22 21 21 20 20 19 19 19 19 18 18 18 18 18 18 18 18 18 18 18
32 32 33 33 32 32 32 32 32 31 31 31 31 30 31 30 28 28 28 27 26 25 24 23 22 21 21 20 20 20 20 19 19 19 18 18 18 18 18 18 18 18 18 18
32 33 33 32 32 32 32 32 32 31 31 31 31 31 30 30 29 28 27 27 27 26 25 23 22 22 21 21 20 20 20 19 19 19 18 18 18 18 18 18 18 18 18 18
32 32 32 32 32 32 32 32 32 31 31 31 31 31 31 30 29 29 28 28 27 26 25 24 23 22 22 21 21 20 20 20 20 19 19 19 19 19 18 18 18 18 18 17
31 31 31 31 32 32 32 32 32 31 31 31 31 31 32 30 30 30 29 28 27 27 26 25 24 23 22 21 21 21 20 20 20 20 19 19 19 18 18 18 18 18 18 18
32 31 32 32 32 32 31 31 31 31 32 30 31 31 31 32 31 31 30 28 28 27 26 25 24 23 22 22 21 21 20 20 20 20 19 19 19 18 18 18 18 18 18 18
30 31 31 31 31 31 31 31 30 30 30 30 31 31 31 32 31 31 30 29 28 27 26 25 24 23 22 22 22 21 21 20 20 20 20 19 19 19 18 18 18 18 18 18
30 30 31 31 31 31 31 32 30 29 30 31 30 31 32 32 31 30 29 29 28 27 26 25 24 23 23 22 22 21 21 21 20 20 20 19 19 19 19 19 18 18 18 18
30 30 31 31 31 32 31 32 33 32 31 30 31 31 32 32 31 30 29 28 28 27 26 25 24 24 23 23 22 22 21 21 21 20 20 20 20 19 19 19 19 18 18 18
30 30 30 30 30 30 32 32 31 31 29 29 30 31 31 31 31 30 30 29 28 27 26 25 24 24 23 23 22 22 22 21 21 21 20 20 20 20 19 19 19 19 18 18
30 29 30 30 30 30 30 31 31 31 31 30 30 31 32 31 31 30 30 28 28 27 26 25 24 24 23 23 22 22 21 21 21 21 21 20 20 20 20 19 19 19 19 18
29 30 29 30 30 30 31 31 31 30 29 30 30 31 32 31 31 30 29 28 27 26 26 25 24 23 23 23 22 22 22 21 21 21 21 20 20 20 20 19 19 19 19 18
28 28 28 28 29 29 30 30 31 31 31 30 30 31 30 30 30 29 28 27 26 25 25 24 24 23 23 22 22 22 22 21 21 21 21 20 20 20 19 19 19 19 19 19
26 28 28 29 29 29 29 29 30 31 30 30 30 31 31 30 30 29 27 26 26 25 24 24 23 22 22 22 22 22 22 21 21 21 20 20 20 20 20 19 19 19 19 19
27 27 28 29 29 29 29 29 29 29 30 30 31 31 30 29 29 28 27 26 25 25 24 23 23 22 22 21 21 21 21 21 21 21 20 20 20 20 20 19 19 19 19 18
25 26 27 27 28 28 28 29 29 29 30 30 30 30 29 28 27 26 26 25 25 24 24 23 22 22 21 21 21 21 21 21 20 20 20 20 20 20 20 19 19 19 19 18
25 25 26 27 27 27 27 28 29 29 29 29 29 29 28 27 26 25 25 24 24 24 23 22 22 21 21 21 21 21 21 21 21 20 20 20 20 20 19 19 19 19 19 19
23 24 25 27 26 25 28 29 29 28 28 28 28 28 27 26 25 24 23 23 23 22 22 22 21 21 21 21 21 21 21 21 21 20 20 19 19 19 19 19 19 19 18 18
23 23 25 26 26 26 27 27 27 27 27 27 27 27 26 25 25 24 22 22 21 21 21 21 21 21 21 21 21 21 21 21 20 20 20 19 19 19 19 18 19 18 18 18
22 22 24 25 25 25 27 27 26 27 26 26 26 26 25 25 27 25 22 21 21 20 20 20 21 20 20 20 20 20 20 20 20 19 19 19 19 19 18 18 18 18 18 18
22 22 23 24 25 26 26 25 25 25 25 25 25 24 24 24 24 22 21 20 20 20 20 20 20 20 19 19 20 20 20 19 19 19 19 19 18 18 18 18 18 17 17 17
23 23 23 24 24 25 24 25 25 24 23 23 23 23 22 22 21 20 20 19 19 19 19 19 19 19 19 19 19 19 19 19 19 18 18 18 18 18 17 17 17 17 17 16
23 23 24 24 24 22 22 22 22 21 22 21 21 21 21 20 20 19 19 19 19 18 18 18 18 18 18 18 18 18 19 18 18 18 18 18 17 17 17 17 17 16 16 16
21 21 22 22 22 21 21 20 20 20 20 20 20 20 19 19 19 18 18 18 18 18 18 18 18 18 18 18 18 18 18 18 18 17 17 17 17 17 17 16 16 16 16 15
21 20 21 21 21 20 20 19 19 19 19 19 19 19 19 18 18 18 17 17 17 17 17 17 17 17 17 17 17 17 17 17 17 17 17 16 16 16 16 16 16 16 16 15
20 20 21 21 20 21 20 18 18 18 18 18 18 18 18 17 17 17 17 17 17 17 17 17 17 17 16 16 16 17 17 17 16 16 16 16 16 16 16 16 15 16 15 15
Wind_Speed
9 11 11 9 7 3 3 3 3 2 3 6 7 6 7 12 13 12 12 12 11 11 10 10 9 9 9 8 8 8 7 7 6 4 4 3 3 2 2 2 2 1 1 2
10 14 10 7 7 6 6 5 3 3 3 4 5 6 7 11 13 13 12 12 12 11 11 11 10 10 10 10 10 9 9 8 7 5 3 2 2 2 2 1 2 1 2 1
16 10 8 9 10 9 8 6 4 2 3 5 4 5 7 9 11 12 12 12 12 12 12 13 12 11 11 11 11 9 9 9 8 7 5 4 3 3 3 3 2 2 1 1
13 8 9 12 12 11 9 6 5 5 6 3 4 3 4 8 11 13 13 13 13 13 13 13 13 13 12 12 11 10 10 9 9 8 6 5 4 2 2 2 2 2 1 1
11 10 11 13 11 11 6 5 6 7 7 6 5 6 2 6 8 10 12 13 13 13 13 13 13 13 12 11 11 11 10 10 9 8 7 6 4 3 3 3 3 1 1 1
9 7 9 9 8 8 7 7 6 8 8 8 5 6 2 3 5 7 10 12 13 13 13 13 13 13 12 11 11 11 11 10 10 9 8 7 5 4 3 3 3 2 2 1
12 10 8 8 9 11 11 10 8 8 8 6 3 5 3 0 2 5 7 10 12 12 13 13 14 14 13 13 12 12 12 11 10 10 9 8 6 6 5 4 4 3 2 2
15 14 12 10 12 11 14 14 11 8 7 5 5 5 2 1 2 4 5 7 10 12 13 13 14 14 14 14 13 13 12 11 11 10 8 7 7 6 5 5 3 3 1 1
13 13 11 10 9 10 13 14 11 10 9 8 6 5 5 3 4 5 6 7 9 11 12 13 14 14 14 14 13 13 12 11 11 10 9 8 7 5 4 4 4 3 2 2
8 10 10 9 8 6 9 11 9 11 9 10 8 9 5 5 4 5 6 7 8 9 11 12 13 13 13 13 12 12 12 11 11 10 9 8 7 6 5 4 4 2 2 1
10 10 11 12 12 13 10 12 11 10 10 10 8 5 2 4 4 5 6 7 8 9 11 11 11 12 12 12 12 12 12 11 11 10 9 8 7 7 6 5 5 4 3 3
11 10 11 11 8 7 12 13 13 12 10 10 11 5 4 2 3 3 4 5 7 8 9 10 11 11 11 12 12 12 12 11 11 10 9 8 7 7 7 6 5 5 4 3
9 10 12 12 11 9 11 11 13 14 12 11 13 7 5 3 2 3 3 5 6 7 8 9 9 10 11 11 11 11 11 11 11 11 10 9 8 8 7 6 6 5 5 4
7 11 14 15 11 12 12 12 12 15 13 13 13 10 4 2 2 3 3 4 6 7 8 8 9 9 9 9 10 10 10 10 10 10 10 9 9 8 7 7 6 6 5 5
7 12 13 11 8 10 12 13 14 15 15 14 11 10 6 3 2 2 3 4 6 7 8 8 8 8 8 9 9 10 10 10 10 10 10 10 9 8 8 7 7 6 6 6
5 9 11 13 11 11 12 14 14 15 14 14 12 9 4 3 2 2 3 4 6 7 7 7 7 8 8 9 9 9 10 9 10 10 10 9 9 9 8 8 8 7 7 6
6 8 11 14 14 13 17 17 16 13 12 13 13 8 4 3 3 3 3 4 5 6 6 6 6 6 7 7 8 9 10 10 10 10 9 9 9 9 8 8 8 8 8 7
7 9 9 11 11 17 11 8 11 12 10 10 8 6 5 4 3 2 2 3 3 3 5 5 6 6 6 7 8 8 9 10 10 10 10 9 9 9 8 8 8 7 7 7
9 9 9 11 15 14 9 9 10 12 10 8 8 6 4 3 4 4 2 1 2 3 3 4 4 5 5 6 8 9 9 9 9 9 10 10 10 9 9 8 8 7 7 7
10 10 11 12 14 15 9 8 7 9 11 7 6 6 5 5 7 4 1 1 1 2 3 3 4 5 5 6 7 9 9 9 8 8 8 8 9 9 9 8 7 7 6 6
13 11 15 15 14 9 3 5 8 12 7 5 6 6 6 6 5 1 1 1 1 2 2 3 4 5 5 6 6 7 7 7 7 7 7 7 7 8 7 7 7 7 6 6
13 12 13 13 14 10 4 7 8 3 1 3 4 4 4 3 1 2 2 1 2 2 3 4 4 4 4 6 6 6 6 6 6 7 7 7 6 6 6 7 6 6 6 7
9 8 7 8 6 2 4 3 2 1 2 2 3 3 2 2 2 1 2 2 2 3 3 3 4 4 3 4 5 6 5 6 6 6 6 6 6 6 6 6 6 6 6 5
7 4 6 6 6 4 3 2 2 3 3 2 2 2 3 3 2 2 2 2 2 2 3 3 4 3 3 3 4 4 5 6 7 6 6 6 6 6 6 5 5 5 5 5
6 5 7 8 6 4 5 3 2 2 2 2 2 2 2 3 2 2 2 2 2 2 2 3 3 3 3 3 3 4 5 6 7 6 6 5 5 5 5 4 3 5 4 3
8 8 9 7 5 5 4 3 2 2 3 3 2 2 2 2 2 2 2 2 2 2 2 3 3 3 3 4 4 3 4 5 6 6 5 5 5 5 5 5 4 1 0 3
Wind_Direction
195 209 208 204 222 244 221 227 217 168 167 217 229 224 188 186 196 196 193 193 195 197 191 189 191 191 188 187 186 186 186 178 179 175 179 164 155 152 135 124 97 108 126 133
202 217 211 203 210 225 223 232 220 163 167 231 240 236 211 196 204 205 201 199 199 195 190 191 194 193 191 189 188 186 187 185 186 178 176 164 145 162 149 123 111 123 133 171
217 210 191 202 207 217 222 234 239 219 185 214 250 216 201 199 209 210 211 208 204 200 196 194 196 197 194 192 192 191 188 183 187 180 180 168 171 189 161 149 138 124 121 147
221 205 197 210 213 223 222 225 233 217 223 218 244 271 176 191 204 210 211 209 206 202 200 197 195 196 197 194 191 189 185 184 183 186 191 190 198 184 145 150 129 132 127 117
205 199 205 216 214 219 222 196 215 227 245 257 230 271 163 172 204 207 207 207 205 200 199 198 197 195 196 194 188 185 183 184 185 190 190 199 208 188 160 156 141 159 131 122
208 193 212 215 203 200 173 178 197 226 241 246 251 268 262 184 212 199 196 202 201 198 196 197 197 192 192 191 187 183 181 185 187 190 192 199 198 196 178 179 167 177 165 167
204 199 198 200 188 184 199 207 215 221 225 237 210 257 279 34 199 202 194 194 196 197 195 193 192 191 191 191 189 185 183 186 188 191 192 194 194 195 194 195 186 195 179 170
204 202 194 199 211 205 213 224 231 238 241 230 197 246 263 102 166 187 192 193 191 192 193 192 191 192 191 191 189 188 186 187 188 189 188 188 191 198 194 192 199 189 178 157
211 207 183 197 213 223 210 225 243 247 253 254 238 240 238 204 203 189 183 182 186 189 189 189 189 191 190 189 188 189 186 187 188 186 183 186 190 198 188 181 194 185 177 174
223 213 187 184 194 215 237 221 223 238 241 247 238 237 239 212 206 186 185 182 179 180 183 184 185 187 186 186 185 186 185 186 185 184 186 183 184 185 185 191 181 170 164 164
225 216 190 190 207 203 199 211 224 235 245 250 248 238 213 219 210 193 184 180 178 177 177 178 180 183 181 180 181 182 183 184 184 184 183 183 181 181 183 185 185 179 175 170
220 225 210 200 198 229 217 219 216 225 231 242 259 250 116 155 190 180 170 166 170 173 171 171 174 176 179 181 182 183 183 184 184 181 180 182 183 183 185 184 183 177 177 182
204 219 213 201 196 202 213 218 224 231 233 236 245 240 129 132 158 158 156 154 161 167 165 166 170 175 180 183 183 184 185 185 184 178 179 177 182 181 182 181 180 180 180 184
221 222 227 225 211 194 204 210 221 229 232 236 240 249 203 186 200 186 169 165 166 164 164 167 169 172 176 181 182 183 186 184 182 178 179 177 180 179 179 184 185 187 187 188
221 221 226 236 233 219 216 217 218 230 241 247 243 245 250 254 268 214 186 172 172 170 171 173 177 173 173 177 181 182 183 181 180 180 182 180 180 180 180 184 188 188 193 195
220 223 220 227 228 230 230 228 225 229 238 245 251 251 263 255 244 204 189 184 181 182 181 179 178 178 181 180 180 179 181 179 178 182 185 180 179 180 183 186 184 185 189 190
207 213 219 225 222 230 233 229 226 226 234 243 246 250 245 238 231 233 211 195 187 187 186 183 180 180 180 181 181 181 179 176 177 181 183 183 183 183 185 184 182 184 185 184
220 220 223 225 211 229 231 219 222 226 232 237 248 256 250 245 225 210 209 196 188 184 184 178 177 176 177 174 175 174 171 173 176 177 178 184 186 185 184 183 183 183 183 184
219 217 225 223 222 225 215 207 213 218 227 230 237 238 236 223 204 185 164 178 175 176 179 175 170 168 164 166 167 164 168 172 176 179 178 184 187 187 185 185 184 183 183 184
200 218 226 224 229 229 214 194 212 221 228 218 230 231 232 232 235 212 150 194 178 162 158 157 148 145 154 158 161 164 169 172 180 182 181 182 185 187 187 184 183 179 182 186
191 204 220 225 230 233 196 178 191 216 222 198 219 228 229 237 269 258 189 182 166 139 144 146 144 144 148 152 155 166 170 174 174 173 173 176 181 184 183 178 178 177 180 183
203 205 212 220 226 223 162 186 205 222 173 205 212 220 226 232 218 194 184 153 152 148 147 149 144 141 149 156 160 167 173 170 167 167 167 167 171 176 172 172 174 177 179 182
218 226 219 221 224 135 159 186 211 245 238 240 224 210 202 197 193 180 163 156 161 163 156 152 149 147 155 162 165 170 170 163 162 164 164 165 167 167 163 166 172 178 186 192
207 227 230 224 214 201 202 209 239 260 254 239 223 207 189 194 196 181 169 159 163 173 169 160 158 161 161 163 168 169 168 165 165 165 164 165 164 166 167 173 178 186 189 197
222 205 219 227 219 215 214 224 249 250 227 220 209 197 190 185 191 188 179 177 171 178 171 169 173 172 172 167 167 164 166 169 170 169 168 172 174 169 166 177 190 204 200 203
232 230 230 231 215 232 222 217 242 233 214 204 201 206 196 189 189 196 198 189 184 182 171 171 179 176 169 166 166 163 172 176 174 174 178 183 185 177 179 175 184 110 209 114
Height
1490 1489 1489 1487 1486 1488 1490 1494 1497 1497 1497 1500 1502 1502 1504 1510 1513 1515 1518 1522 1525 1528 1531 1533 1535 1536 1538 1539 1540 1542 1543 1544 1545 1547 1548 1549 1550 1550 1550 1550 1550 1550 1551 1551
1489 1487 1483 1485 1488 1489 1491 1495 1496 1496 1498 1499 1499 1500 1499 1505 1509 1511 1515 1518 1522 1525 1528 1531 1533 1535 1536 1538 1539 1541 1542 1544 1545 1546 1547 1548 1549 1550 1550 1551 1550 1551 1551 1551
1485 1482 1483 1487 1489 1491 1492 1494 1494 1497 1498 1497 1498 1500 1498 1500 1505 1509 1512 1515 1518 1521 1525 1528 1530 1532 1534 1536 1537 1540 1541 1542 1544 1545 1547 1548 1548 1549 1550 1551 1551 1551 1551 1551
1481 1481 1485 1487 1488 1489 1493 1489 1491 1495 1499 1497 1498 1504 1496 1496 1500 1504 1507 1511 1514 1518 1521 1524 1527 1530 1532 1534 1536 1538 1539 1541 1543 1544 1546 1547 1549 1550 1550 1550 1551 1551 1551 1551
1481 1482 1485 1486 1485 1486 1488 1488 1491 1493 1495 1496 1496 1500 1494 1492 1497 1498 1502 1506 1510 1514 1518 1521 1524 1527 1530 1532 1534 1536 1537 1539 1541 1543 1544 1546 1548 1549 1550 1550 1550 1550 1550 1550
1477 1481 1482 1482 1483 1485 1488 1491 1493 1492 1492 1507 1498 1501 1498 1488 1491 1492 1497 1502 1506 1510 1514 1518 1522 1525 1527 1530 1532 1534 1535 1537 1539 1541 1543 1544 1546 1547 1548 1549 1550 1550 1551 1551
1482 1481 1481 1482 1485 1488 1488 1494 1505 1508 1507 1505 1493 1499 1494 1484 1486 1490 1494 1498 1503 1507 1511 1515 1518 1521 1524 1527 1529 1532 1534 1536 1538 1540 1542 1543 1545 1546 1547 1548 1549 1550 1551 1551
1484 1486 1480 1480 1481 1483 1484 1485 1502 1514 1511 1499 1496 1497 1486 1482 1486 1490 1493 1496 1499 1503 1507 1511 1515 1518 1521 1524 1527 1529 1532 1534 1536 1538 1540 1542 1543 1545 1546 1547 1548 1549 1549 1550
1476 1480 1476 1478 1478 1478 1483 1483 1477 1488 1494 1501 1494 1489 1482 1481 1485 1488 1491 1494 1497 1500 1504 1508 1511 1515 1518 1522 1525 1527 1530 1532 1534 1536 1538 1540 1542 1543 1545 1545 1546 1547 1547 1548
1470 1479 1475 1477 1479 1480 1477 1476 1483 1489 1506 1509 1499 1493 1487 1482 1483 1485 1488 1491 1495 1498 1502 1505 1509 1512 1516 1519 1522 1525 1528 1530 1532 1535 1537 1539 1540 1542 1543 1544 1545 1545 1546 1546
1469 1477 1478 1478 1480 1478 1483 1482 1482 1484 1487 1502 1505 1493 1474 1478 1480 1483 1486 1490 1493 1496 1499 1503 1507 1510 1514 1517 1520 1523 1525 1528 1531 1533 1535 1538 1539 1541 1542 1543 1544 1544 1545 1546
1471 1472 1476 1475 1474 1474 1474 1476 1480 1491 1495 1491 1493 1488 1472 1476 1479 1483 1486 1489 1492 1495 1498 1502 1505 1508 1511 1515 1518 1521 1524 1527 1529 1532 1534 1536 1538 1539 1540 1541 1542 1543 1544 1545
1472 1475 1485 1485 1482 1478 1476 1475 1473 1474 1480 1487 1492 1486 1474 1477 1480 1483 1486 1489 1492 1495 1498 1501 1504 1506 1509 1512 1515 1519 1522 1525 1527 1530 1532 1533 1536 1537 1539 1540 1541 1542 1542 1543
1474 1472 1476 1479 1473 1471 1477 1476 1475 1474 1482 1483 1482 1478 1474 1476 1479 1483 1486 1489 1491 1495 1497 1500 1502 1505 1507 1510 1513 1516 1519 1522 1525 1527 1529 1531 1533 1535 1536 1538 1539 1540 1540 1540
1472 1472 1471 1468 1466 1467 1471 1473 1475 1476 1473 1476 1474 1474 1474 1477 1480 1483 1486 1488 1491 1493 1496 1498 1501 1503 1505 1507 1510 1513 1516 1519 1522 1524 1526 1528 1530 1532 1533 1534 1536 1537 1538 1538
1473 1473 1473 1474 1469 1469 1472 1470 1471 1473 1472 1472 1472 1473 1474 1478 1481 1484 1486 1488 1489 1492 1494 1497 1499 1501 1503 1505 1507 1510 1513 1515 1518 1521 1523 1525 1526 1528 1529 1530 1532 1533 1534 1535
1472 1475 1476 1474 1470 1473 1476 1468 1468 1470 1469 1470 1472 1473 1475 1478 1481 1484 1485 1487 1488 1490 1492 1494 1496 1498 1500 1502 1505 1507 1510 1512 1515 1517 1519 1521 1523 1524 1526 1527 1529 1530 1531 1532
1475 1476 1473 1470 1477 1488 1466 1460 1462 1466 1468 1469 1471 1473 1475 1478 1481 1483 1485 1486 1488 1490 1491 1493 1494 1496 1498 1500 1502 1505 1507 1509 1511 1513 1515 1518 1520 1521 1523 1524 1525 1527 1528 1529
1474 1475 1471 1469 1474 1470 1465 1463 1464 1467 1470 1469 1471 1473 1476 1477 1479 1482 1484 1485 1487 1488 1490 1491 1492 1494 1495 1497 1499 1502 1504 1507 1509 1510 1511 1514 1516 1518 1519 1521 1522 1523 1524 1525
1473 1474 1472 1470 1473 1472 1460 1459 1463 1467 1471 1470 1472 1473 1475 1476 1474 1477 1482 1484 1485 1486 1487 1489 1490 1492 1493 1495 1497 1499 1501 1503 1505 1507 1509 1510 1513 1514 1516 1517 1519 1520 1521 1522
1470 1472 1470 1468 1468 1459 1457 1460 1464 1472 1469 1469 1471 1473 1474 1475 1476 1479 1481 1482 1484 1485 1485 1487 1488 1489 1491 1492 1494 1496 1498 1500 1502 1504 1506 1508 1509 1511 1513 1514 1515 1517 1518 1519
1460 1462 1466 1464 1467 1464 1459 1460 1463 1465 1467 1468 1470 1472 1474 1476 1477 1478 1479 1481 1482 1483 1484 1485 1486 1487 1488 1490 1491 1494 1496 1498 1500 1501 1503 1504 1506 1508 1510 1511 1512 1514 1515 1516
1456 1455 1452 1456 1459 1460 1461 1463 1466 1467 1468 1469 1470 1472 1474 1475 1476 1477 1478 1480 1481 1482 1483 1484 1485 1486 1487 1488 1489 1491 1493 1495 1497 1499 1500 1502 1503 1505 1506 1508 1509 1511 1512 1514
1456 1459 1456 1457 1457 1461 1463 1464 1466 1468 1469 1469 1471 1472 1473 1474 1475 1476 1477 1478 1480 1481 1481 1482 1484 1484 1485 1486 1488 1489 1491 1493 1494 1496 1498 1499 1501 1502 1504 1505 1507 1508 1509 1510
1454 1457 1456 1457 1458 1461 1462 1464 1465 1467 1468 1469 1470 1471 1472 1473 1473 1474 1476 1477 1478 1479 1480 1481 1482 1483 1484 1484 1486 1487 1489 1490 1492 1494 1495 1497 1499 1500 1501 1503 1504 1505 1506 1507
1457 1456 1455 1453 1457 1458 1460 1463 1465 1465 1466 1467 1468 1469 1470 1471 1472 1473 1474 1475 1476 1477 1478 1478 1480 1481 1482 1483 1484 1486 1487 1489 1490 1492 1493 1495 1497 1498 1499 1500 1501 1501 1503 1503